Location: NJAA Observatory
(40.6819°N, 74.8979°W)
Time: 16:25:31
(UTC-04:00)

Daily predictions for brighter satellites

Satellite Brightness Start Highest point End
(mag) Time Altitude Azimuth Time Altitude Azimuth Time Altitude Azimuth
CENTAUR R/B 3.3 20:40:01 10° NNW 20:47:50 69° NE 20:56:06 10° SE
Cosmos 2278 Rocket 3.9 20:48:19 10° ESE 20:50:37 13° E 20:52:56 10° ENE
Cosmos 1943 4.4 20:47:04 10° NW 20:52:23 43° WSW 20:57:38 10° S
USA 186 2.5 20:53:02 10° S 20:55:58 52° W 20:59:07 10° NNW
Cosmos 1356 Rocket 3.7 20:52:01 10° S 20:56:06 51° E 21:00:15 10° NNE
NOSS 2-2 (D) 3.7 20:55:17 10° SSW 20:59:12 47° ESE 21:03:38 10° NE
Cosmos 1844 Rocket 3.3 20:56:16 10° SSE 21:01:17 34° ESE 21:06:20 10° NE
Cosmos 2074 Rocket 4.1 20:56:53 10° S 21:03:04 65° E 21:09:17 10° NNE
Meteor 2-3 Rocket 3.9 20:59:02 10° SSW 21:04:40 82° W 21:10:17 10° N
Cosmos 1825 4.1 21:03:12 10° ESE 21:05:12 14° E 21:07:12 10° NE
SL-27 R/B 3.5 21:02:37 10° N 21:05:56 31° ENE 21:08:58 11° SE
H-2A R/B 2.5 21:04:35 10° SE 21:08:45 47° ENE 21:12:51 10° N
Meteor 1-27 Rocket 4.4 21:08:43 10° N 21:13:49 35° ENE 21:18:26 12° SE
NOSS 2-2 (C) 3.4 21:09:48 10° SSW 21:13:50 69° ESE 21:18:29 10° NE
Cosmos 2263 Rocket 3.8 21:11:14 10° SW 21:16:31 39° WNW 21:21:48 10° N
Cosmos 1340 Rocket 3.6 21:13:31 10° SSW 21:17:26 55° WNW 21:21:24 10° N
YAOGAN 6 3.9 21:17:30 14° ESE 21:19:40 23° ENE 21:22:30 10° NNE
Cosmos 1408 4.1 21:18:10 14° SE 21:20:01 19° E 21:22:43 10° NE
Cosmos 1624 Rocket 4.0 21:16:50 10° SSW 21:22:05 84° ESE 21:27:25 10° NNE
Envisat 3.0 21:17:19 10° SSE 21:22:21 70° ENE 21:27:26 10° N
BREEZE-M DEB (TANK) 2.5 21:22:43 10° WNW 21:24:40 44° SSW 21:26:55 16° SE
Cosmos 1782 2.9 21:20:42 10° N 21:24:41 60° E 21:28:20 12° SSE
Cosmos 1939 Rocket 2.7 21:20:57 10° SSE 21:24:48 86° E 21:28:44 10° N
Atlas Centaur 2 2.8 21:23:05 10° SW 21:25:25 16° S 21:26:36 14° SSE
H-2A R/B 4.0 21:25:05 10° E 21:28:17 16° ENE 21:31:27 10° NNE
Cosmos 1238 Rocket 3.8 21:27:33 10° NNE 21:30:08 23° E 21:31:27 18° ESE
Sich 1 Rocket 3.7 21:27:46 10° S 21:32:16 60° E 21:36:48 10° NNE
NOSS 2-2 (E) 3.9 21:28:42 10° SW 21:32:50 71° NW 21:37:41 10° NNE
SPOT 5 3.2 21:28:50 13° SSE 21:33:32 64° ENE 21:38:50 10° N
Meteor 2-10 Rocket 4.2 21:28:17 10° NNW 21:34:04 66° W 21:39:42 10° S
Cosmos 2341 Rocket 4.4 21:29:39 10° SSE 21:35:34 44° E 21:41:28 10° NNE
PSLV R/B 3.6 21:34:51 23° SE 21:36:17 42° ENE 21:39:07 10° N
ERBS 2.4 21:32:50 10° NW 21:36:18 75° SW 21:38:24 22° SE
Cosmos 1674 Rocket 3.6 21:33:16 10° N 21:37:45 88° E 21:41:52 12° S
Cosmos 1606 3.0 21:35:04 10° N 21:38:56 51° E 21:41:22 20° SSE
Cosmos 407 Rocket 3.5 21:35:53 10° NNW 21:41:09 69° ENE 21:45:02 18° SSE
SPOT 1/Viking Rocket 4.1 21:39:31 18° SE 21:42:58 44° ENE 21:47:54 10° N
Terra 3.7 21:42:24 13° E 21:44:30 16° ENE 21:47:24 10° NNE
Cosmos 1892 4.3 21:42:14 10° SW 21:45:46 36° WNW 21:49:21 10° N
Cosmos 1452 Rocket 3.6 21:40:54 10° S 21:45:59 53° ESE 21:51:07 10° NNE
ERS-1 Rocket 4.0 21:43:45 10° S 21:48:32 43° W 21:53:21 10° NNW
Cosmos 1782 Rocket 4.1 21:47:17 21° SSE 21:49:48 41° E 21:54:01 10° NNE
Cosmos 1190 Rocket 4.1 21:47:33 10° NNW 21:52:45 75° WSW 21:56:41 18° S
Cosmos 1140 Rocket 4.3 21:50:45 10° N 21:55:27 35° ENE 21:57:55 23° ESE
PSLV R/B 3.8 21:54:26 10° W 21:57:47 46° SSW 21:58:46 35° SSE
Cosmos 962 Rocket 4.4 21:54:34 12° S 22:00:16 68° E 22:06:26 10° NNE
Okean 3 3.5 22:00:10 10° N 22:04:27 64° E 22:06:19 32° SSE
USA 234 3.5 21:59:36 10° ENE 22:05:48 44° SE 22:11:57 10° SSW
Cosmos 1975 Rocket 3.2 22:01:49 10° N 22:06:05 55° E 22:07:44 33° SE
Cosmos 2154 Rocket 4.0 22:00:33 10° S 22:06:47 83° W 22:13:01 10° N
Intercosmos 25 3.5 22:07:22 37° SE 22:08:10 43° E 22:11:17 10° NNE
CZ-4B R/B 3.3 22:05:44 10° NNE 22:10:43 70° ESE 22:13:59 21° S
MetOp-B 4.3 22:07:40 19° S 22:11:32 72° WSW 22:16:53 10° NNW
SL-8 R/B 4.5 22:08:46 10° W 22:13:30 54° NNW 22:18:13 10° NE
Cosmos 1908 Rocket 4.1 22:10:44 10° SSW 22:15:03 58° W 22:19:26 10° N
COSMOS 2406 4.4 22:10:38 10° NW 22:15:52 37° WSW 22:20:20 13° SSW
USA 245 2.8 22:19:19 54° SSW 22:19:53 74° WSW 22:23:30 10° NNW
SL-08 RB Rocket 3.7 22:18:58 37° SSE 22:20:44 71° ENE 22:25:20 10° N
Cosmos 1378 Rocket 3.9 22:17:49 10° NNW 22:22:04 60° W 22:24:19 26° SSW
ARGOS 3.1 22:19:51 30° SSE 22:22:38 87° ENE 22:28:01 10° NNW
Cosmos 676 Rocket 4.2 22:17:31 10° NNW 22:22:41 68° WSW 22:25:21 29° S
ATLAS 5 CENTAUR R/B 3.5 22:19:16 10° NW 22:24:48 36° WSW 22:28:52 18° S
Cosmos 1295 Rocket 4.4 22:21:05 21° S 22:25:29 78° E 22:31:47 10° N
Cosmos 1184 Rocket 3.0 22:24:38 43° SSW 22:25:34 70° W 22:28:54 10° N
CZ-4 R/B 3.6 22:23:31 10° NNE 22:28:13 77° ESE 22:30:17 33° S
CZ-3C R/B 4.2 22:18:52 10° SW 22:28:42 17° SSW 22:30:50 15° S
Cosmos 1174 3.4 22:26:25 10° NW 22:29:35 57° WSW 22:29:36 57° WSW
Cosmos 1954 Rocket 4.0 22:24:28 10° NNW 22:29:41 76° WSW 22:31:54 35° S
Cosmos 2151 Rocket 4.0 22:32:07 42° ESE 22:32:32 43° E 22:36:50 10° NNE
Cosmos 2278 Rocket 2.2 22:28:12 10° SSW 22:33:52 83° WNW 22:39:35 10° NNE
Cosmos 489 Rocket 4.4 22:28:39 10° NNW 22:34:53 88° ENE 22:37:38 36° SSE
Cosmos 1844 4.5 22:31:23 10° SW 22:36:59 53° WNW 22:42:41 10° NNE
CENTAUR R/B 4.4 22:31:31 10° NW 22:38:10 30° WSW 22:44:20 12° SSW
Cosmos 1741 Rocket 4.1 22:33:11 10° NNW 22:38:23 62° ENE 22:39:49 44° SE
Cosmos 2366 rocket 4.1 22:36:39 36° SSE 22:39:07 59° E 22:45:20 10° NNE
Cosmos 1833 Rocket 3.7 22:34:02 10° N 22:39:08 34° ENE 22:40:56 28° E
Cosmos 1825 3.6 22:37:57 16° SW 22:40:28 35° WNW 22:44:01 10° N
Cosmos 2084 3.4 22:37:51 11° SW 22:41:32 66° NW 22:45:21 10° NNE
COSMOS 2487 2.9 22:41:01 10° NNW 22:44:33 54° WSW 22:44:48 53° WSW
Cosmos 1844 Rocket 4.3 22:40:01 10° WSW 22:45:07 34° WNW 22:50:15 10° N
USA 229 DEB 4.3 22:42:06 10° NNW 22:48:57 49° NE 22:52:17 29° ESE
USA 229 4.3 22:42:12 10° NNW 22:49:03 48° NE 22:52:24 29° ESE
APEX 3.2 22:50:10 77° SE 22:50:19 79° ESE 22:55:08 10° NNE
CZ-4C R/B 3.2 22:51:49 75° SW 22:52:00 79° WSW 22:56:01 10° NNW
Cosmos 1812 3.9 22:49:46 10° NNE 22:52:41 31° ENE 22:52:41 31° ENE
Cosmos 2082 Rocket 2.5 22:48:22 10° NNW 22:54:00 56° ENE 22:55:25 44° ESE
Cosmos 2218 Rocket 4.1 22:59:14 32° SSW 23:02:25 80° W 23:08:52 10° N
Okean 1 Rocket 4.2 23:05:04 31° ENE 23:05:04 31° ENE 23:08:14 10° NNE
Cosmos 2297 3.6 23:02:58 38° SSW 23:05:19 90° E 23:11:06 10° NNE
Landsat 7 4.2 23:05:01 46° SW 23:06:01 57° W 23:10:43 10° NNW
H-2A R/B 2.2 23:05:41 49° S 23:07:05 72° WSW 23:12:27 10° NNW
Cosmos 1300 Rocket 4.4 23:08:01 38° ENE 23:08:01 38° ENE 23:11:26 10° NNE
Cosmos 1242 Rocket 4.1 23:07:19 10° NNW 23:10:32 29° W 23:10:42 29° W
Cosmos 1727 Rocket 3.9 23:13:58 10° N 23:20:09 79° W 23:21:45 52° S
Spot 4 3.8 23:21:25 72° SW 23:21:46 76° WSW 23:26:39 10° NNW
Terra 2.1 23:21:17 53° SW 23:21:46 56° W 23:26:28 10° NNW
IGS 5A 4.0 23:25:17 51° W 23:25:17 51° W 23:29:10 10° NNW
ASTEX 1 3.2 23:20:42 10° N 23:25:40 83° E 23:25:46 82° ESE
Timation 2 Rocket 4.5 23:28:19 10° NW 23:33:56 43° WSW 23:35:01 39° SW
Okean 1 4.0 23:31:28 10° N 23:34:40 54° NNW 23:34:40 54° NNW
Cosmos 2369 Rocket 3.8 23:46:17 22° ENE 23:46:17 22° ENE 23:49:06 10° NE
Meteor 1-20 Rocket 4.5 23:43:42 53° SW 23:44:45 63° WNW 23:50:16 10° N
BREEZE-M DEB (TANK) 4.4 23:43:20 10° NW 23:45:45 24° NNE 23:50:46 10° ENE
USA 234 3.8 23:42:32 10° NE 23:48:53 56° NW 23:55:12 10° WSW
Cosmos 1302 Rocket 4.4 23:54:59 53° ENE 23:54:59 53° ENE 23:59:18 10° NNE
